Location: Malvern Link
(52.1333°N, 2.3000°W)
Time: 14:30:12
(UTC+00:00)

SO-50 - Pass Details

Date: 11 July 2022
Orbit: 585 x 698 km, 64.6° (Epoch: 11 August)

Event Time Altitude Azimuth Distance (km) Brightness Sun altitude
Rises 22:04:45 0° 214° (SW) 2,962 ? -10.6°
Reaches altitude 10° 22:07:01 10° 212° (SSW) 2,073 ? -10.8°
Maximum altitude 22:11:43 72° 129° (SE) 715 ? -11.1°
Drops below altitude 10° 22:16:35 10° 46° (NE) 2,146 ? -11.5°
Sets 22:18:58 0° 45° (NE) 3,076 ? -11.7°
